sat.trackr.live / text

‹ back to catalog

STARLINK-36387

NORAD 67610 · 2026-018X

PAYLOAD ACTIVE UNKNOWN

§ Identity

Operator
Country
US
Launch date
2026-01-29
Launch site
AFWTR
Launch vehicle
Mass (kg)
RCS (m²)

Purposes: comms

External: N2YO · Heavens-Above · Gunter

§ Orbital elements

Epoch: 2026-09-19T22:11:16.173600Z

Period
93.91 min
Inclination
97.2856°
Eccentricity
0.0000211
Mean motion
15.33456892 rev/d
Perigee alt
465.4 km
Apogee alt
465.7 km
Semi-major
6,843.6 km
B*
3.7104e-4
RAAN
333.1240°
Arg perigee
214.7757°
Mean anomaly
145.3472°
Rev number
3,754

§ Raw data

STARLINK-363871 67610U 26018X   26262.92449275  .00011927  00000+0  37104-3 0  99942 67610  97.2856 333.1240 0000211 214.7757 145.3472 15.33456892 37543

JSON: /api/v1/satellites/67610 · /tle

For live sub-satellite position, see the globe view (requires WebGL).

§ Visibility from observer

Set your observer location to see the next 7 days of passes ≥ 10°. The values pass through the URL so the page stays shareable.

No JS? Fill the form by hand. The geolocation button needs JavaScript.